Wind_Speed
8 10 12 15 15 14 15 18 17 19 16 14 18 22 25 28 31 30 30 31 29 28 29 28 23 25 20 22 24 19 22 22 20 18 16 15 13 13 11 14 13 12 13 15 22
6 10 12 14 16 14 12 12 18 15 18 13 14 16 19 22 22 22 23 24 23 24 21 23 23 15 21 23 17 19 18 16 14 14 14 12 12 10 11 13 15 14 18 24 22
3 13 14 19 18 14 12 9 14 18 14 11 10 11 12 15 16 18 21 23 20 25 23 20 16 12 17 14 12 16 14 14 13 10 11 11 10 11 10 12 17 22 19 26 27
16 11 18 20 16 17 13 7 10 14 11 11 8 7 8 8 10 12 17 20 18 16 13 17 18 14 10 10 11 15 14 9 7 10 17 19 20 20 12 14 17 22 22 26 25
18 21 16 15 16 18 13 8 7 11 10 11 8 6 3 5 5 7 9 13 13 11 15 14 12 3 4 3 9 14 12 15 15 20 19 24 23 12 18 28 25 27 29 30 31
21 21 18 16 15 17 10 7 5 6 6 7 9 5 3 2 1 3 3 3 3 4 7 11 6 4 4 4 6 10 14 13 17 20 20 23 25 12 15 30 38 27 31 33 34
33 29 20 22 21 16 10 8 7 2 4 4 8 6 3 2 4 3 2 2 2 1 0 4 3 6 4 5 5 5 14 21 24 16 21 30 12 7 29 35 29 30 33 31 33
33 27 22 21 16 17 14 11 10 5 6 3 4 6 4 3 2 5 3 3 3 1 2 1 4 7 5 7 7 6 4 5 14 12 23 28 23 22 36 34 34 33 39 31 32
33 22 19 16 16 16 18 18 13 12 8 7 6 2 4 2 4 5 4 2 5 3 2 2 5 7 8 5 9 4 0 7 16 27 26 23 12 10 17 32 30 41 39 35 35
28 21 18 18 19 19 19 19 15 12 12 9 8 5 3 1 2 8 7 3 6 6 2 5 7 11 10 8 7 7 7 8 14 23 22 26 23 13 6 10 30 38 33 35 38
29 20 19 19 19 19 15 14 15 13 16 14 10 5 6 7 4 6 10 8 11 10 10 8 11 15 14 10 13 14 12 17 21 21 7 8 18 14 15 23 25 17 19 27 34
30 22 21 18 19 18 21 13 16 15 14 16 13 9 8 8 8 7 9 11 17 14 13 14 19 20 23 18 15 17 15 17 20 19 12 12 14 25 33 22 17 15 24 42 50
32 22 22 21 19 20 19 20 17 17 17 16 16 14 13 9 14 16 15 13 15 14 17 13 14 18 21 19 21 18 15 20 23 7 4 6 18 28 34 12 11 14 32 42 46
31 24 24 23 22 21 20 21 20 18 19 18 16 16 17 12 17 16 14 14 13 15 5 16 18 13 19 20 14 15 19 21 17 8 6 11 19 19 25 20 32 34 40 50 55
32 27 26 25 25 23 22 21 21 19 20 22 22 21 18 16 19 17 17 16 14 17 20 23 22 18 24 22 19 21 18 11 14 10 14 16 18 15 18 17 27 25 38 39 39
33 30 30 29 29 27 25 24 22 20 19 22 21 16 14 16 21 21 25 22 22 19 26 25 22 25 24 22 21 20 17 16 14 16 16 23 19 16 9 4 11 34 41 39 51
36 35 34 33 32 31 29 29 27 23 22 23 20 19 16 15 19 30 31 27 25 30 24 19 21 23 25 22 21 15 19 23 21 21 27 21 17 14 7 5 19 28 28 46 51
39 38 38 37 36 33 32 31 29 26 22 25 24 21 20 20 19 21 31 32 28 30 28 32 32 29 31 27 26 25 25 24 28 26 25 23 21 24 19 20 21 23 42 45 45
41 41 40 39 39 37 34 33 33 33 30 27 24 25 22 20 21 21 27 31 30 32 34 36 34 32 31 26 26 24 23 26 28 24 22 16 15 28 19 20 33 43 40 36 47
42 42 43 39 40 38 35 32 31 33 30 30 27 25 25 25 23 24 27 28 29 32 35 35 31 28 23 27 26 25 28 27 28 27 20 20 22 28 27 26 31 40 28 49 53
42 39 39 37 38 40 37 37 35 35 33 30 30 27 27 27 26 25 28 32 33 34 29 27 28 23 27 25 27 26 26 28 27 25 23 19 25 22 25 29 33 23 50 53 50
45 40 41 41 42 42 41 39 40 39 38 36 32 29 28 28 26 28 26 27 36 30 29 33 30 26 28 31 34 33 23 18 18 16 25 24 23 26 24 31 40 46 47 49 46
47 45 47 44 45 40 38 38 38 42 40 36 32 27 28 27 28 28 22 24 24 29 32 31 31 32 28 29 32 31 25 25 24 28 34 33 27 30 34 37 41 44 50 49 43
55 53 50 46 45 44 43 45 47 47 44 32 29 29 28 30 28 27 20 21 22 24 24 25 26 26 26 29 30 32 32 32 34 37 42 38 40 35 36 41 44 47 47 46 47
59 57 50 49 46 45 44 44 42 39 36 31 30 33 30 30 27 21 15 16 17 18 21 22 20 18 20 21 29 35 32 32 35 40 44 44 37 33 38 44 45 48 45 46 50
52 51 52 52 47 47 46 43 42 40 39 32 34 32 34 28 23 21 15 17 17 22 21 21 23 20 20 20 19 20 21 24 25 11 34 33 32 34 45 49 50 49 49 52 53
48 52 53 50 49 47 47 48 48 44 36 35 37 36 33 25 24 18 17 14 16 19 13 15 16 19 23 22 16 14 14 21 30 32 37 36 33 43 53 52 47 45 47 52 54
Wind_Direction
340 326 326 344 346 348 4 10 21 37 40 56 68 82 77 78 80 90 97 98 98 95 88 80 76 71 59 57 54 64 73 61 62 61 59 53 47 38 30 18 3 354 346 337 332
329 316 310 320 328 330 351 360 1 19 33 49 82 87 87 79 76 80 94 98 99 99 95 72 76 57 36 61 48 59 62 61 52 44 36 19 12 3 359 356 347 345 335 338 332
13 3 326 303 306 315 322 352 349 357 21 47 60 105 98 85 86 85 91 93 103 98 78 72 73 67 70 74 72 73 72 66 54 35 13 5 2 356 340 327 321 327 333 338 338
309 291 336 327 284 299 306 327 336 347 18 36 60 70 109 102 79 90 94 101 107 104 71 77 76 91 85 70 54 56 40 43 40 18 4 352 334 325 328 336 336 331 335 332 331
300 310 325 320 281 290 293 287 331 337 359 35 45 66 101 111 101 85 100 109 113 108 93 97 87 77 66 19 59 82 23 357 327 357 356 343 356 337 332 335 347 335 333 330 328
310 308 318 323 285 278 275 270 303 322 342 25 36 67 77 159 182 136 136 144 149 114 111 113 110 124 353 345 11 10 26 356 347 339 343 339 352 321 335 327 332 335 332 331 331
308 305 301 306 309 261 258 270 289 299 308 354 38 64 114 171 210 223 235 210 239 331 91 76 355 332 22 355 20 7 43 349 331 335 332 360 24 328 323 318 323 336 338 338 329
307 297 298 290 285 268 258 264 263 270 264 294 330 55 122 111 201 227 234 267 259 288 22 6 313 336 341 18 34 52 90 327 317 319 337 7 356 357 322 323 329 336 332 336 339
300 290 282 269 272 271 273 271 257 265 234 264 261 281 62 212 221 209 207 289 288 286 328 5 2 353 339 357 346 8 268 298 344 10 1 359 26 202 339 336 327 332 329 330 342
293 282 269 259 263 274 268 266 255 255 238 236 242 240 274 244 219 209 239 225 274 292 310 334 342 332 333 326 317 310 326 306 317 337 26 27 17 309 268 244 324 310 316 322 327
287 271 275 266 256 266 261 265 242 254 242 232 253 253 260 240 240 240 224 221 265 272 277 291 302 318 311 318 316 316 339 341 349 335 328 349 330 344 267 306 311 352 344 327 339
277 263 269 262 263 256 262 270 254 256 239 251 254 258 247 246 238 253 244 243 242 245 276 290 301 308 311 304 297 299 314 318 345 339 343 310 268 316 319 327 293 303 277 298 312
265 252 262 263 260 267 264 269 276 267 247 248 252 245 242 236 226 254 271 266 277 288 244 247 318 307 312 304 297 289 296 325 339 350 359 283 270 290 309 337 276 276 305 304 298
250 244 251 258 259 263 267 267 269 261 260 257 250 252 238 230 225 232 250 261 285 258 313 290 324 309 320 317 305 306 312 319 330 318 301 314 278 294 310 292 293 276 291 302 303
242 244 248 253 256 257 260 261 262 258 254 250 254 260 269 252 216 239 226 252 254 278 273 255 269 276 298 306 309 320 314 327 321 319 292 308 303 319 331 314 320 303 309 314 315
239 243 248 250 252 253 256 259 254 256 251 261 264 259 257 246 229 222 232 219 228 245 263 273 263 268 285 302 298 305 304 321 331 334 313 305 314 327 18 133 237 305 309 313 321
241 245 245 248 251 250 255 257 259 255 256 262 262 259 258 257 247 228 233 232 234 239 244 263 260 277 289 294 291 305 316 320 317 325 325 313 316 324 324 229 271 292 273 313 316
243 245 244 247 247 249 252 255 258 255 249 254 257 261 261 267 263 256 242 238 248 242 249 262 274 279 275 287 299 308 312 304 304 309 313 319 318 326 326 286 274 276 301 307 317
241 244 248 248 250 251 253 256 255 257 258 260 260 265 264 267 266 252 254 243 251 255 264 274 273 278 282 293 295 297 297 298 295 303 297 307 260 308 330 343 319 303 308 311 321
246 246 246 249 250 252 253 252 256 257 258 260 261 265 267 265 262 257 253 257 260 268 271 276 275 282 286 284 288 295 286 292 294 293 296 295 274 319 317 307 294 312 295 310 322
241 242 247 251 251 250 254 256 258 260 261 261 261 262 267 267 267 259 259 243 250 266 268 267 270 277 282 278 284 281 292 295 295 285 298 304 277 295 319 310 304 286 296 314 317
238 242 248 251 250 252 256 262 268 267 263 263 260 262 267 264 259 253 261 248 238 243 260 267 271 274 279 281 283 283 280 302 290 279 307 311 293 298 291 290 295 299 310 315 313
241 242 247 251 254 257 259 260 266 266 271 259 255 260 256 254 252 252 252 249 250 259 265 262 262 269 270 275 278 284 270 273 275 268 286 304 295 282 284 292 296 302 312 319 325
241 243 249 253 255 255 255 264 266 269 266 249 250 249 245 247 249 254 255 256 258 261 266 269 270 273 276 278 279 278 282 285 285 277 279 295 290 294 300 309 316 317 320 324 325
242 245 252 254 253 259 262 263 259 255 251 246 242 241 238 243 247 264 251 268 271 258 259 265 271 277 279 284 275 272 273 276 281 287 289 291 292 297 310 319 315 317 320 322 322
247 249 250 249 250 255 257 247 243 241 245 241 238 237 236 233 241 248 253 252 252 256 262 274 277 269 286 290 306 290 284 292 292 287 298 296 287 282 300 309 315 321 321 321 322
243 242 239 242 245 250 250 248 242 241 239 235 234 232 232 229 241 230 225 260 271 262 260 267 269 277 282 280 301 290 281 289 297 290 295 290 281 289 297 302 311 315 317 321 323
Height
10963 10964 10963 10962 10963 10963 10964 10963 10962 10961 10961 10960 10959 10957 10955 10953 10952 10950 10951 10952 10954 10956 10958 10957 10953 10956 10960 10957 10958 10956 10952 10953 10952 10951 10951 10950 10948 10947 10946 10944 10944 10943 10941 10940 10938
10963 10963 10963 10963 10963 10963 10965 10964 10964 10963 10963 10962 10963 10961 10960 10958 10957 10957 10957 10957 10959 10958 10957 10958 10957 10959 10959 10959 10962 10958 10954 10953 10953 10951 10951 10950 10948 10947 10945 10942 10941 10941 10939 10938 10935
10964 10963 10963 10963 10963 10963 10964 10965 10964 10964 10964 10964 10964 10964 10963 10961 10961 10961 10961 10961 10961 10961 10960 10963 10957 10959 10959 10965 10964 10958 10956 10954 10953 10952 10951 10948 10949 10947 10944 10942 10941 10938 10937 10934 10932
10963 10962 10962 10961 10962 10961 10963 10964 10964 10964 10964 10964 10964 10964 10964 10963 10964 10963 10963 10964 10963 10963 10963 10963 10961 10963 10964 10964 10964 10957 10956 10954 10952 10952 10954 10954 10951 10948 10947 10945 10942 10938 10934 10930 10928
10961 10961 10960 10959 10959 10960 10961 10962 10964 10964 10964 10964 10964 10964 10964 10964 10963 10964 10965 10966 10965 10964 10964 10965 10963 10966 10964 10966 10963 10956 10959 10959 10955 10952 10953 10952 10948 10947 10948 10948 10943 10937 10932 10928 10923
10959 10959 10958 10957 10957 10958 10959 10961 10963 10964 10964 10964 10964 10964 10964 10965 10964 10964 10965 10966 10965 10965 10966 10963 10967 10967 10965 10962 10960 10961 10960 10959 10956 10952 10953 10951 10948 10943 10946 10945 10939 10933 10928 10923 10919
10955 10955 10954 10954 10953 10955 10957 10959 10961 10962 10963 10964 10964 10964 10965 10965 10964 10964 10965 10965 10965 10964 10964 10965 10966 10964 10962 10962 10963 10959 10958 10957 10955 10955 10956 10949 10946 10944 10946 10942 10935 10931 10925 10919 10914
10951 10951 10950 10950 10951 10952 10954 10957 10959 10960 10962 10963 10963 10964 10965 10965 10964 10963 10963 10964 10964 10965 10965 10965 10965 10963 10961 10963 10963 10959 10958 10959 10954 10954 10951 10947 10944 10941 10937 10935 10932 10927 10922 10919 10913
10947 10946 10946 10947 10949 10949 10951 10954 10956 10957 10959 10961 10962 10963 10963 10964 10964 10963 10961 10962 10962 10962 10962 10963 10964 10962 10962 10961 10959 10960 10960 10955 10951 10949 10946 10944 10942 10943 10938 10930 10927 10924 10919 10916 10911
10943 10943 10943 10944 10945 10946 10947 10949 10952 10955 10956 10958 10959 10961 10962 10963 10962 10962 10961 10961 10961 10960 10961 10961 10961 10961 10960 10960 10958 10957 10956 10953 10948 10946 10946 10943 10941 10930 10931 10921 10929 10929 10921 10911 10907
10938 10938 10939 10939 10940 10942 10944 10946 10948 10951 10952 10953 10956 10958 10960 10961 10961 10961 10961 10960 10960 10961 10961 10961 10960 10960 10960 10957 10955 10953 10951 10948 10946 10942 10943 10939 10940 10937 10937 10938 10935 10928 10906 10902 10901
10934 10934 10935 10936 10937 10938 10940 10943 10945 10947 10949 10951 10953 10955 10957 10959 10959 10959 10960 10961 10959 10960 10960 10960 10959 10958 10956 10956 10955 10952 10950 10945 10946 10942 10938 10938 10936 10932 10932 10929 10924 10925 10913 10896 10899
10929 10929 10930 10932 10933 10934 10936 10938 10940 10942 10945 10947 10949 10951 10953 10955 10955 10956 10957 10958 10958 10958 10958 10958 10958 10958 10955 10953 10950 10950 10948 10945 10945 10942 10937 10935 10935 10930 10926 10926 10919 10918 10912 10904 10898
10923 10924 10926 10928 10930 10931 10932 10934 10937 10939 10941 10943 10945 10946 10948 10950 10951 10951 10953 10954 10954 10955 10954 10956 10955 10954 10953 10951 10950 10948 10946 10943 10942 10941 10937 10937 10933 10932 10924 10921 10915 10912 10907 10899 10893
10917 10918 10921 10922 10925 10927 10929 10930 10933 10935 10936 10938 10939 10941 10942 10945 10947 10948 10948 10950 10950 10952 10951 10950 10949 10949 10948 10948 10946 10945 10941 10940 10940 10938 10936 10934 10930 10930 10925 10918 10914 10905 10903 10895 10889
10910 10912 10915 10917 10919 10921 10924 10926 10928 10932 10931 10932 10936 10937 10938 10939 10942 10943 10943 10941 10943 10945 10946 10945 10944 10944 10944 10944 10942 10941 10938 10937 10937 10935 10932 10927 10926 10925 10924 10915 10908 10904 10895 10894 10886
10903 10905 10908 10911 10913 10916 10918 10921 10924 10927 10928 10928 10931 10932 10933 10935 10936 10937 10937 10939 10939 10938 10940 10941 10940 10942 10942 10941 10938 10939 10937 10932 10933 10932 10928 10925 10924 10921 10920 10915 10911 10897 10894 10889 10880
10896 10898 10901 10904 10906 10909 10911 10915 10919 10920 10922 10922 10926 10927 10929 10930 10931 10931 10933 10935 10935 10935 10936 10936 10937 10938 10937 10937 10935 10936 10934 10929 10927 10928 10924 10919 10917 10917 10916 10915 10911 10902 10893 10887 10879
10888 10891 10894 10897 10899 10902 10905 10909 10911 10913 10915 10918 10920 10922 10923 10924 10926 10927 10928 10930 10930 10930 10931 10930 10932 10931 10932 10933 10933 10930 10929 10925 10919 10922 10920 10919 10917 10912 10911 10912 10897 10897 10889 10880 10871
10879 10884 10885 10890 10892 10894 10898 10902 10904 10905 10907 10910 10913 10915 10917 10919 10922 10923 10924 10925 10925 10925 10924 10925 10925 10925 10929 10926 10924 10922 10918 10918 10915 10912 10913 10913 10911 10908 10906 10905 10898 10888 10882 10874 10867
10871 10876 10878 10882 10884 10887 10891 10894 10896 10898 10901 10903 10905 10908 10911 10914 10915 10917 10917 10919 10919 10919 10919 10920 10920 10922 10920 10916 10915 10917 10913 10911 10909 10907 10907 10908 10903 10901 10899 10893 10888 10880 10876 10870 10862
10861 10869 10869 10871 10875 10878 10882 10887 10889 10891 10893 10896 10899 10901 10904 10905 10907 10908 10910 10909 10911 10912 10911 10913 10913 10916 10913 10910 10906 10910 10909 10906 10904 10902 10903 10902 10899 10894 10894 10888 10881 10876 10872 10868 10855
10851 10858 10856 10863 10866 10872 10878 10877 10879 10881 10885 10888 10891 10894 10895 10897 10898 10900 10902 10901 10902 10902 10901 10904 10906 10906 10906 10903 10900 10900 10902 10902 10900 10897 10896 10895 10895 10889 10885 10882 10877 10872 10861 10857 10849
10840 10844 10848 10856 10860 10863 10867 10867 10871 10875 10877 10881 10884 10885 10887 10890 10892 10895 10897 10897 10897 10896 10896 10896 10899 10900 10899 10898 10896 10894 10893 10894 10893 10891 10888 10889 10886 10882 10877 10871 10864 10858 10853 10847 10842
10827 10834 10845 10847 10852 10857 10859 10861 10862 10865 10868 10872 10875 10875 10881 10884 10888 10893 10892 10892 10894 10893 10892 10892 10894 10896 10896 10894 10887 10886 10888 10886 10885 10883 10878 10881 10877 10876 10870 10865 10861 10851 10849 10843 10835
10821 10830 10833 10834 10841 10843 10844 10847 10849 10853 10859 10865 10865 10870 10872 10879 10884 10889 10889 10887 10887 10888 10888 10888 10890 10891 10890 10886 10884 10883 10885 10884 10883 10882 10871 10871 10872 10870 10865 10864 10856 10847 10841 10835 10827
10809 10811 10815 10823 10827 10830 10834 10835 10839 10845 10854 10855 10857 10862 10868 10878 10876 10881 10883 10883 10885 10883 10884 10886 10886 10885 10884 10882 10882 10883 10881 10880 10878 10875 10871 10868 10866 10863 10858 10859 10853 10847 10840 10830 10821